EHI
0 0 0 0 0 0 0 0 0 0 0 0 0 0 0 0 0 0 0 0 0 0 0 0 0 0 0 0 0 0 0 0 0 0 0 0 0 0 0 0 0 0 0
0 0 0 0 0 0 0 0 0 0 0 0 0 0 0 0 0 0 0 0 0 0 0 0 0 0 0 0 0 0 0 0 0 0 0 0 0 0 0 0 0 0 0
0 0 0 0 0 0 0 0 0 0 0 0 0 0 0 0 0 0 0 0 0 0 0 0 0 0 0 0 0 0 0 0 0 0 0 0 0 0 0 0 0 0 0
0 0 0 0 0 0 0 0 0 0 0 0 0 0 0 0 0 0 0 0 0 0 0 0 0 0 0 0 0 0 0 0 0 0 0 0 0 0 0 0 0 0 0
0 0 0 0 0 0 0 0 0 0 0 0 0 0 0 0 0 0 0 0 0 0 0 0 0 0 0 0 0 0 0 0 0 0 0 0 0 0 0 0 0 0 0
0 0 0 0 0 0 0 0 0 0 0 0 0 0 0 0 0 0 0 0 0 0 0 0 0 0 0 0 0 0 0 0 0 0 0 0 0 0 0 0 0 0 0
0 0 0 0 0 0 0 0 0 0 0 0 0 0 0 0 0 0 0 0 0 0 0 0 0 0 0 0 0 0 0 0 0 0 0 0 0 0 0 0 0 0 0
0 0 0 0 0 0 0 0 0 0 0 0 0 0 0 0 0 0 0 0 0 0 0 0 0 0 0 0 0 0 0 0 0 0 0 0 0 0 0 0 0 0 0
0 0 0 0 0 0 0 0 0 0 0 0 0 0 0 0 0 0 0 0 0 0 0 0 0 0 0 0 0 0 0 0 0 0 0 0 0 0 0 0 0 0 0
0 0 0 0 0 0 0 0 0 0 0 0 0 0 0 0 0 0 0 0 0 0 0 0 0 0 0 0 0 0 0 0 0 0 0 0 0 0 0 0 0 0 0
0 0 0 0 0 0 0 0 0 0 0 0 0 0 0 0 0 0 0 0 0 0 0 0 0 0 0 0 0 0 0 0 0 0 0 0 0 0 0 0 0 0 0
0 0 0 0 0 0 0 0 0 0 0 0 0 0 0 0 0 0 0 0 0 0 0 0 0 0 0 0 0 0 0 0 0 0 0 0 0 0 0 0 0 0 0
0 0 0 0 0 0 0 0 0 0 0 0 0 0 0 0 0 0 0 0 0 0 0 0 0 0 0 0 0 0 0 0 0 0 0 0 0 0 0 0 0 0 0
0 0 0 0 0 0 0 0 0 0 0 0 0 0 0 0 0 0 0 0 0 0 0 0 0 0 0 0 0 0 0 0 0 0 0 0 0 0 0 0 0 0 0
0 0 0 0 0 0 0 0 0 0 0 0 0 0 0 0 0 0 0 0 0 0 0 0 0 0 0 0 0 0 0 0 0 0 0 0 0 0 0 0 0 0 0
0 0 0 0 0 0 0 0 0 0 0 0 0 0 0 0 0 0 0 0 0 0 0 0 0 0 0 0 0 0 0 0 0 0 0 0 0 0 0 0 0 0 0
0 0 0 0 0 0 0 0 0 0 0 0 0 0 0 0 0 0 0 0 0 0 0 0 0 0 0 0 0 0 0 0 0 0 0 0 0 0 0 0 0 0 0
0 0 0 0 0 0 0 0 0 0 0 0 0 0 0 0 0 0 0 0 0 0 0 0 0 0 0 0 0 0 0 0 0 0 0 0 0 0 0 0 0 0 0
0 0 0 0 0 0 0 0 0 0 0 0 0 0 0 0 0 0 0 0 0 0 0 0 0 0 0 0 0 0 0 0 0 0 0 0 0 0 0 0 0 0 0
0 0 0 0 0 0 0 0 0 0 0 0 0 0 0 0 0 0 0 0 0 0 0 0 0 0 0 0 0 0 0 0 0 0 0 0 0 0 0 0 0 0 0
0 0 0 0 0 0 0 0 0 0 0 0 0 0 0 0 0 0 0 0 0 0 0 0 0 0 0 0 0 0 0 0 0 0 0 0 0 0 0 0 0 0 0
0 0 0 0 0 0 0 0 0 0 0 0 0 0 0 0 0 0 0 0 0 0 0 0 0 0 0 0 0 0 0 0 0 0 0 0 0 0 0 0 0 0 0
0 0 0 0 0 0 0 0 0 0 0 0 0 0 0 0 0 0 0 0 0 0 0 0 0 0 0 0 0 0 0 0 0 0 0 0 0 0 0 0 0 0 0
0 0 0 0 0 0 0 0 0 0 0 0 0 0 0 0 0 0 0 0 0 0 0 0 0 0 0 0 0 0 0 0 0 0 0 0 0 0 0 0 0 0 0
0 0 0 0 0 0 0 0 0 0 0 0 0 0 0 0 0 0 0 0 0 0 0 0 0 0 0 0 0 0 0 0 0 0 0 0 0 0 0 0 0 0 0
0 0 0 0 0 0 0 0 0 0 0 0 0 0 0 0 0 0 0 0 0 0 0 0 0 0 0 0 0 0 0 0 0 0 0 0 0 0 0 0 0 0 0
Wind_Speed
1 2 2 2 2 2 2 1 1 1 1 2 2 2 2 1 1 2 1 1 1 1 1 1 2 2 2 2 2 2 3 3 6 5 4 4 5 6 6 6 7 7 7
1 2 2 2 2 2 2 1 1 1 1 1 2 2 2 1 1 2 2 1 2 1 1 1 2 1 2 2 2 2 3 3 5 8 5 4 5 6 6 7 6 6 6
1 2 2 2 2 1 1 1 1 1 1 1 2 1 1 1 1 1 1 1 1 2 2 2 2 2 2 2 2 2 2 3 4 5 6 5 5 4 5 6 6 6 6
2 2 1 1 1 1 1 1 1 1 1 1 1 1 1 1 1 1 1 1 1 1 1 2 2 3 3 3 3 3 3 3 4 5 5 5 5 4 4 5 6 5 5
2 2 2 2 1 1 1 1 1 1 1 1 1 1 1 1 1 1 1 1 1 1 1 2 3 3 3 3 3 3 3 3 4 4 5 5 5 4 4 4 6 6 5
3 3 2 2 2 1 1 1 1 1 1 1 1 1 1 0 1 1 1 1 2 2 2 2 2 2 3 4 5 5 5 5 5 4 5 5 6 5 5 5 5 5 5
3 3 2 2 2 2 1 1 1 0 1 1 1 1 1 0 1 1 1 1 1 1 1 2 2 2 3 3 5 6 6 7 7 5 6 6 6 6 6 5 5 6 6
4 3 3 3 2 2 2 1 1 1 0 0 1 1 1 0 0 1 1 0 0 1 1 2 2 3 3 3 3 4 5 5 5 5 6 6 6 5 5 6 6 6 5
4 4 3 3 3 2 2 2 1 1 1 0 0 0 0 1 1 1 2 0 0 1 2 2 2 3 5 6 3 4 5 4 5 6 7 7 7 7 5 3 3 3 4
5 4 3 3 3 3 3 2 1 1 1 1 0 0 0 1 1 1 1 0 1 1 2 2 3 4 6 6 3 3 5 5 4 5 5 6 5 5 5 3 3 3 3
4 3 3 3 4 3 2 2 2 1 1 1 0 1 1 1 1 2 2 0 1 1 2 2 3 5 6 6 4 3 5 5 3 4 4 4 4 3 3 3 3 3 3
4 4 3 3 3 3 3 2 2 2 1 1 1 1 1 1 2 2 3 2 2 1 2 2 3 5 5 5 4 5 6 5 2 3 3 3 3 4 4 4 4 4 4
5 4 4 3 3 3 3 3 2 2 2 1 1 1 1 1 2 3 3 3 3 2 2 3 4 5 4 4 5 6 4 2 2 2 3 4 4 4 4 4 3 3 3
6 5 4 4 3 3 2 3 3 3 2 2 2 2 2 2 2 2 2 2 2 2 2 3 4 3 3 3 4 3 2 2 2 3 3 4 3 3 3 3 3 3 2
6 5 5 4 4 3 3 3 3 3 4 4 3 3 3 3 3 3 2 2 2 2 1 1 1 1 1 2 2 2 2 2 2 3 3 3 3 3 3 3 2 2 2
6 6 5 4 4 4 3 2 3 3 5 5 5 4 3 4 4 3 3 3 3 2 0 0 1 2 2 2 2 3 2 3 3 3 3 3 3 3 3 3 2 2 2
7 6 5 4 4 4 4 3 2 2 2 4 4 5 4 4 3 3 2 2 2 1 1 1 1 2 2 2 2 3 3 3 3 3 3 3 3 3 3 3 3 3 2
7 7 6 5 5 5 4 4 4 3 2 2 2 4 4 3 3 2 2 1 1 1 1 1 2 2 2 2 3 3 3 3 3 3 3 3 3 3 3 3 3 3 3
7 5 5 5 5 5 4 4 4 4 3 2 1 2 3 3 3 2 2 1 2 2 2 2 2 2 2 2 3 3 3 3 3 3 3 3 3 3 3 3 3 4 2
6 9 8 5 5 5 4 4 4 4 4 3 3 3 2 1 1 2 2 2 2 2 2 3 2 2 2 3 3 3 3 3 3 3 3 3 3 3 3 3 3 3 2
6 7 9 6 5 5 5 5 5 4 4 4 4 4 5 3 3 3 3 3 3 3 3 3 3 3 3 2 2 3 3 3 3 3 3 3 3 3 3 3 3 3 2
6 6 6 6 5 5 5 5 4 4 5 4 3 4 7 3 3 3 3 3 3 3 2 2 3 3 3 3 3 3 3 3 3 3 3 3 3 3 3 2 2 2 2
6 6 6 5 5 7 6 5 5 5 4 4 4 3 3 3 3 3 3 3 3 2 2 2 3 3 3 3 3 3 3 4 3 3 3 3 3 3 2 2 2 2 2
7 7 7 6 5 5 5 5 5 5 5 4 4 4 4 4 3 4 3 3 3 3 2 3 3 4 4 3 3 3 4 4 3 3 4 4 4 3 2 2 2 2 2
7 7 7 6 6 6 5 5 5 5 5 5 4 4 4 4 3 3 3 3 3 3 3 3 3 3 4 5 4 4 6 7 5 3 3 3 3 3 2 2 2 2 2
7 7 6 6 6 6 6 6 5 5 5 5 4 4 4 4 4 3 3 3 3 3 3 3 3 4 4 4 5 6 7 7 7 5 2 2 2 2 2 2 2 2 2
Wind_Direction
59 73 77 72 78 92 98 100 110 116 123 129 135 135 134 131 130 132 146 158 165 205 239 231 248 238 240 250 245 246 253 254 270 281 269 280 280 281 288 278 274 266 271
93 89 87 83 83 82 80 74 100 120 126 142 140 134 132 133 133 140 145 156 165 189 215 222 241 237 241 252 250 258 264 264 268 283 285 282 277 273 276 279 284 279 270
117 105 98 93 90 88 84 74 86 98 86 96 103 121 130 124 115 130 161 186 200 206 209 216 235 232 243 253 261 265 272 283 277 281 287 281 280 279 284 286 286 277 281
142 133 139 152 146 140 124 101 95 96 95 95 100 107 110 115 133 160 167 185 203 212 219 231 238 235 237 244 256 260 269 276 277 281 285 291 288 290 286 294 301 290 286
159 163 184 182 159 138 128 112 97 100 103 113 108 97 94 116 139 134 174 182 196 222 248 256 258 259 256 262 268 266 265 267 275 281 287 297 295 302 294 291 292 295 288
178 187 191 174 154 153 151 129 107 99 93 105 122 133 127 85 63 89 136 174 205 219 246 275 283 272 281 288 288 287 276 270 273 273 278 288 287 289 285 291 294 301 294
186 189 189 181 174 181 159 131 133 136 73 85 136 140 143 95 39 53 69 135 204 244 268 280 292 296 295 284 290 294 288 284 275 268 272 276 279 284 284 281 288 289 280
185 190 191 185 185 177 159 164 183 173 167 153 164 170 176 245 16 45 46 60 338 303 287 276 279 289 293 301 304 301 288 285 285 275 271 276 278 279 267 263 269 283 286
194 198 197 189 183 178 184 195 192 164 161 185 190 170 192 286 351 17 22 40 327 301 303 308 301 296 306 315 310 302 297 294 301 298 296 299 306 306 301 289 295 300 299
203 201 196 188 185 191 198 196 184 166 178 181 217 210 227 272 328 340 350 129 298 305 312 305 302 305 312 315 298 296 301 302 312 314 314 318 312 309 314 278 268 274 290
192 183 184 188 189 192 190 181 175 171 163 178 235 277 266 276 299 304 309 256 245 283 297 303 302 314 315 318 316 302 305 314 311 300 301 307 308 306 305 296 275 258 263
174 177 186 191 191 181 177 179 172 165 164 201 232 289 286 275 286 287 296 293 293 264 275 289 296 315 321 322 322 325 324 323 318 311 308 309 310 309 304 298 290 276 259
173 182 188 189 191 184 179 180 173 173 179 203 215 247 278 283 279 287 297 301 299 293 274 287 302 316 321 321 328 331 327 324 324 322 315 310 304 298 297 297 298 296 294
180 186 184 183 189 188 185 183 182 187 192 203 215 236 259 272 272 278 285 285 292 286 281 287 300 313 325 330 331 327 323 322 321 314 315 311 311 311 307 305 305 313 314
183 185 184 187 186 188 193 198 197 203 197 200 212 213 219 241 254 272 285 278 271 268 290 324 327 326 325 325 326 327 325 322 314 316 314 317 318 318 312 314 309 309 306
185 188 187 186 187 185 185 207 230 221 223 225 220 216 231 242 256 265 275 281 281 280 300 312 305 303 300 303 307 312 311 311 310 310 311 312 312 311 314 314 308 297 296
188 188 185 186 187 186 185 191 211 245 234 230 228 233 241 246 249 263 274 280 268 253 225 269 286 292 301 304 299 295 296 300 299 297 299 303 304 304 307 310 311 303 295
187 187 185 188 189 188 191 194 197 204 222 246 244 238 244 247 255 257 252 232 252 261 260 257 274 283 288 293 294 294 295 299 299 299 300 302 300 299 302 305 305 305 303
185 184 183 184 187 187 188 193 197 203 211 223 238 246 236 241 248 248 229 213 230 245 256 265 270 276 281 283 287 290 292 293 297 297 297 296 293 292 293 295 294 296 289
190 188 180 181 184 184 187 193 197 201 208 212 217 219 206 196 216 233 229 226 235 244 250 259 265 268 272 276 282 287 290 291 297 296 299 298 290 286 289 288 287 285 274
183 185 182 181 187 190 192 197 198 199 206 214 220 217 207 201 212 220 225 228 234 242 249 258 264 267 269 273 276 279 280 281 282 286 291 293 294 287 282 282 284 280 279
178 180 182 187 189 191 195 196 197 203 209 214 220 221 220 213 211 221 228 233 235 238 243 248 254 257 257 260 267 273 276 279 284 285 285 284 284 285 284 284 289 289 280
177 180 184 188 189 197 199 196 199 204 207 209 209 211 213 212 216 221 228 234 235 239 241 243 250 258 262 260 258 257 264 271 278 281 282 282 280 277 278 279 279 279 270
180 184 188 189 189 192 194 196 199 203 205 207 209 210 213 216 219 222 224 228 232 238 240 242 247 254 260 266 265 266 266 272 272 264 264 268 272 271 266 270 266 266 251
182 186 189 190 192 195 196 198 199 202 204 207 209 210 212 214 220 223 223 223 227 237 244 247 250 252 253 260 267 271 276 281 283 273 259 260 265 263 258 259 261 259 237
186 187 188 189 192 193 196 199 201 202 204 207 208 208 208 211 217 220 220 219 225 233 240 245 248 253 258 259 264 272 279 283 285 280 269 258 259 259 252 245 241 237 216